Location: Unspecified
(0.0000°N, 0.0000°E)
Time: 20:04:50
(UTC+00:00)

Envisat - Pass Details

Date: 31 May 2023
Orbit: 763 x 765 km, 98.2° (Epoch: 05 June)

Event Time Altitude Azimuth Distance (km) Brightness Sun altitude
Rises 04:32:36 0° 338° (NNW) 3,211 6.2 -19.7°
Reaches altitude 10° 04:36:01 10° 313° (NW) 2,290 5.2 -18.9°
Enters shadow 04:36:37 12° 306° (NW) 2,185 5.1 -18.7°
